owner,sensor,date,latitude,longitude,vertical_datum,sea_water_temperature,qcFlag 
DISL,ioos:station:DISL:PPTA:1,2017-10-01T00:00:00Z,30.2791,-87.5561,0.0,29.56,2 
DISL,ioos:station:DISL:PPTA:1,2017-10-01T00:30:00Z,30.2791,-87.5561,0.0,29.65,2 
DISL,ioos:station:DISL:PPTA:1,2017-10-01T01:00:00Z,30.2791,-87.5561,0.0,29.28,2 
DISL,ioos:station:DISL:PPTA:1,2017-10-01T01:30:00Z,30.2791,-87.5561,0.0,29.22,2 
DISL,ioos:station:DISL:PPTA:1,2017-10-01T02:00:00Z,30.2791,-87.5561,0.0,29.2,2 
DISL,ioos:station:DISL:PPTA:1,2017-10-01T02:30:00Z,30.2791,-87.5561,0.0,29.99,2 
DISL,ioos:station:DISL:PPTA:1,2017-10-01T03:00:00Z,30.2791,-87.5561,0.0,29.44,2 
DISL,ioos:station:DISL:PPTA:1,2017-10-01T03:30:00Z,30.2791,-87.5561,0.0,29.24,2 
DISL,ioos:station:DISL:PPTA:1,2017-10-01T04:00:00Z,30.2791,-87.5561,0.0,29.12,2 
DISL,ioos:station:DISL:PPTA:1,2017-10-01T04:30:00Z,30.2791,-87.5561,0.0,29.15,2 
DISL,ioos:station:DISL:PPTA:1,2017-10-01T05:00:00Z,30.2791,-87.5561,0.0,28.98,2 
DISL,ioos:station:DISL:PPTA:1,2017-10-01T05:30:00Z,30.2791,-87.5561,0.0,28.96,2 
DISL,ioos:station:DISL:PPTA:1,2017-10-01T06:00:00Z,30.2791,-87.5561,0.0,28.93,2 
DISL,ioos:station:DISL:PPTA:1,2017-10-01T06:30:00Z,30.2791,-87.5561,0.0,28.94,2 
DISL,ioos:station:DISL:PPTA:1,2017-10-01T07:00:00Z,30.2791,-87.5561,0.0,28.88,2 
DISL,ioos:station:DISL:PPTA:1,2017-10-01T07:30:00Z,30.2791,-87.5561,0.0,28.82,2 
DISL,ioos:station:DISL:PPTA:1,2017-10-01T08:00:00Z,30.2791,-87.5561,0.0,28.8,2 
DISL,ioos:station:DISL:PPTA:1,2017-10-01T08:30:00Z,30.2791,-87.5561,0.0,28.82,2 
DISL,ioos:station:DISL:PPTA:1,2017-10-01T09:00:00Z,30.2791,-87.5561,0.0,28.74,2 
DISL,ioos:station:DISL:PPTA:1,2017-10-01T09:30:00Z,30.2791,-87.5561,0.0,28.69,2 
DISL,ioos:station:DISL:PPTA:1,2017-10-01T10:00:00Z,30.2791,-87.5561,0.0,28.7,2 
DISL,ioos:station:DISL:PPTA:1,2017-10-01T10:30:00Z,30.2791,-87.5561,0.0,28.71,2 
DISL,ioos:station:DISL:PPTA:1,2017-10-01T11:00:00Z,30.2791,-87.5561,0.0,28.74,2 
DISL,ioos:station:DISL:PPTA:1,2017-10-01T11:30:00Z,30.2791,-87.5561,0.0,28.61,2 
DISL,ioos:station:DISL:PPTA:1,2017-10-01T12:00:00Z,30.2791,-87.5561,0.0,28.52,2 
DISL,ioos:station:DISL:PPTA:1,2017-10-01T12:30:00Z,30.2791,-87.5561,0.0,28.34,2 
DISL,ioos:station:DISL:PPTA:1,2017-10-01T13:00:00Z,30.2791,-87.5561,0.0,28.26,2 
DISL,ioos:station:DISL:PPTA:1,2017-10-01T13:30:00Z,30.2791,-87.5561,0.0,28.25,2 
DISL,ioos:station:DISL:PPTA:1,2017-10-01T14:00:00Z,30.2791,-87.5561,0.0,28.18,2 
DISL,ioos:station:DISL:PPTA:1,2017-10-01T14:30:00Z,30.2791,-87.5561,0.0,28.39,2 
DISL,ioos:station:DISL:PPTA:1,2017-10-01T15:00:00Z,30.2791,-87.5561,0.0,28.17,2 
DISL,ioos:station:DISL:PPTA:1,2017-10-01T15:30:00Z,30.2791,-87.5561,0.0,28.27,2 
DISL,ioos:station:DISL:PPTA:1,2017-10-01T16:00:00Z,30.2791,-87.5561,0.0,28.4,2 
DISL,ioos:station:DISL:PPTA:1,2017-10-01T16:30:00Z,30.2791,-87.5561,0.0,28.32,2 
DISL,ioos:station:DISL:PPTA:1,2017-10-01T17:00:00Z,30.2791,-87.5561,0.0,28.37,2 
DISL,ioos:station:DISL:PPTA:1,2017-10-01T17:30:00Z,30.2791,-87.5561,0.0,28.43,2 
DISL,ioos:station:DISL:PPTA:1,2017-10-01T18:00:00Z,30.2791,-87.5561,0.0,28.35,2 
DISL,ioos:station:DISL:PPTA:1,2017-10-01T18:30:00Z,30.2791,-87.5561,0.0,28.32,2 
DISL,ioos:station:DISL:PPTA:1,2017-10-01T19:00:00Z,30.2791,-87.5561,0.0,28.24,2 
DISL,ioos:station:DISL:PPTA:1,2017-10-01T19:30:00Z,30.2791,-87.5561,0.0,28.11,2 
DISL,ioos:station:DISL:PPTA:1,2017-10-01T20:00:00Z,30.2791,-87.5561,0.0,28.02,2 
DISL,ioos:station:DISL:PPTA:1,2017-10-01T20:30:00Z,30.2791,-87.5561,0.0,28.09,2 
DISL,ioos:station:DISL:PPTA:1,2017-10-01T21:00:00Z,30.2791,-87.5561,0.0,27.91,2 
DISL,ioos:station:DISL:PPTA:1,2017-10-01T21:30:00Z,30.2791,-87.5561,0.0,27.81,2 
DISL,ioos:station:DISL:PPTA:1,2017-10-01T22:00:00Z,30.2791,-87.5561,0.0,27.68,2 
DISL,ioos:station:DISL:PPTA:1,2017-10-01T22:30:00Z,30.2791,-87.5561,0.0,27.58,2 
DISL,ioos:station:DISL:PPTA:1,2017-10-01T23:00:00Z,30.2791,-87.5561,0.0,27.5,2 
DISL,ioos:station:DISL:PPTA:1,2017-10-01T23:30:00Z,30.2791,-87.5561,0.0,27.39,2 
DISL,ioos:station:DISL:PPTA:1,2017-10-02T00:00:00Z,30.2791,-87.5561,0.0,27.26,2 
DISL,ioos:station:DISL:PPTA:1,2017-10-02T00:30:00Z,30.2791,-87.5561,0.0,27.13,2 
DISL,ioos:station:DISL:PPTA:1,2017-10-02T01:00:00Z,30.2791,-87.5561,0.0,26.99,2 
DISL,ioos:station:DISL:PPTA:1,2017-10-02T01:30:00Z,30.2791,-87.5561,0.0,26.97,2 
DISL,ioos:station:DISL:PPTA:1,2017-10-02T02:00:00Z,30.2791,-87.5561,0.0,26.73,2 
DISL,ioos:station:DISL:PPTA:1,2017-10-02T02:30:00Z,30.2791,-87.5561,0.0,26.88,2 
DISL,ioos:station:DISL:PPTA:1,2017-10-02T03:00:00Z,30.2791,-87.5561,0.0,26.66,2 
DISL,ioos:station:DISL:PPTA:1,2017-10-02T03:30:00Z,30.2791,-87.5561,0.0,27.34,2 
DISL,ioos:station:DISL:PPTA:1,2017-10-02T04:00:00Z,30.2791,-87.5561,0.0,27.3,2 
DISL,ioos:station:DISL:PPTA:1,2017-10-02T04:30:00Z,30.2791,-87.5561,0.0,27.23,2 
DISL,ioos:station:DISL:PPTA:1,2017-10-02T05:00:00Z,30.2791,-87.5561,0.0,27.19,2 
DISL,ioos:station:DISL:PPTA:1,2017-10-02T05:30:00Z,30.2791,-87.5561,0.0,27.38,2 
DISL,ioos:station:DISL:PPTA:1,2017-10-02T06:00:00Z,30.2791,-87.5561,0.0,27.4,2 
DISL,ioos:station:DISL:PPTA:1,2017-10-02T06:30:00Z,30.2791,-87.5561,0.0,27.43,2 
DISL,ioos:station:DISL:PPTA:1,2017-10-02T07:00:00Z,30.2791,-87.5561,0.0,27.43,2 
DISL,ioos:station:DISL:PPTA:1,2017-10-02T07:30:00Z,30.2791,-87.5561,0.0,27.45,2 
DISL,ioos:station:DISL:PPTA:1,2017-10-02T08:00:00Z,30.2791,-87.5561,0.0,27.35,2 
DISL,ioos:station:DISL:PPTA:1,2017-10-02T08:30:00Z,30.2791,-87.5561,0.0,27.3,2 
DISL,ioos:station:DISL:PPTA:1,2017-10-02T09:00:00Z,30.2791,-87.5561,0.0,27.38,2 
DISL,ioos:station:DISL:PPTA:1,2017-10-02T09:30:00Z,30.2791,-87.5561,0.0,27.17,2 
DISL,ioos:station:DISL:PPTA:1,2017-10-02T10:00:00Z,30.2791,-87.5561,0.0,27.02,2 
DISL,ioos:station:DISL:PPTA:1,2017-10-02T10:30:00Z,30.2791,-87.5561,0.0,27.0,2 
DISL,ioos:station:DISL:PPTA:1,2017-10-02T11:00:00Z,30.2791,-87.5561,0.0,26.99,2 
DISL,ioos:station:DISL:PPTA:1,2017-10-02T11:30:00Z,30.2791,-87.5561,0.0,26.87,2 
DISL,ioos:station:DISL:PPTA:1,2017-10-02T12:00:00Z,30.2791,-87.5561,0.0,26.83,2 
DISL,ioos:station:DISL:PPTA:1,2017-10-02T12:30:00Z,30.2791,-87.5561,0.0,26.78,2 
DISL,ioos:station:DISL:PPTA:1,2017-10-02T13:00:00Z,30.2791,-87.5561,0.0,26.91,2 
DISL,ioos:station:DISL:PPTA:1,2017-10-02T13:30:00Z,30.2791,-87.5561,0.0,26.86,2 
DISL,ioos:station:DISL:PPTA:1,2017-10-02T14:00:00Z,30.2791,-87.5561,0.0,26.6,2 
DISL,ioos:station:DISL:PPTA:1,2017-10-02T14:30:00Z,30.2791,-87.5561,0.0,26.58,2 
DISL,ioos:station:DISL:PPTA:1,2017-10-02T15:00:00Z,30.2791,-87.5561,0.0,26.54,2 
DISL,ioos:station:DISL:PPTA:1,2017-10-02T15:30:00Z,30.2791,-87.5561,0.0,26.38,2 
DISL,ioos:station:DISL:PPTA:1,2017-10-02T16:00:00Z,30.2791,-87.5561,0.0,26.35,2 
DISL,ioos:station:DISL:PPTA:1,2017-10-02T16:30:00Z,30.2791,-87.5561,0.0,26.17,2 
DISL,ioos:station:DISL:PPTA:1,2017-10-02T17:00:00Z,30.2791,-87.5561,0.0,26.36,2 
DISL,ioos:station:DISL:PPTA:1,2017-10-02T17:30:00Z,30.2791,-87.5561,0.0,26.37,2 
DISL,ioos:station:DISL:PPTA:1,2017-10-02T18:00:00Z,30.2791,-87.5561,0.0,26.39,2 
DISL,ioos:station:DISL:PPTA:1,2017-10-02T18:30:00Z,30.2791,-87.5561,0.0,26.47,2 
DISL,ioos:station:DISL:PPTA:1,2017-10-02T19:00:00Z,30.2791,-87.5561,0.0,26.75,2 
DISL,ioos:station:DISL:PPTA:1,2017-10-02T19:30:00Z,30.2791,-87.5561,0.0,26.57,2 
DISL,ioos:station:DISL:PPTA:1,2017-10-02T20:00:00Z,30.2791,-87.5561,0.0,26.53,2 
DISL,ioos:station:DISL:PPTA:1,2017-10-02T20:30:00Z,30.2791,-87.5561,0.0,26.46,2 
DISL,ioos:station:DISL:PPTA:1,2017-10-02T21:00:00Z,30.2791,-87.5561,0.0,26.4,2 
DISL,ioos:station:DISL:PPTA:1,2017-10-02T21:30:00Z,30.2791,-87.5561,0.0,26.35,2 
DISL,ioos:station:DISL:PPTA:1,2017-10-02T22:00:00Z,30.2791,-87.5561,0.0,26.29,2 
DISL,ioos:station:DISL:PPTA:1,2017-10-02T22:30:00Z,30.2791,-87.5561,0.0,26.22,2 
DISL,ioos:station:DISL:PPTA:1,2017-10-02T23:00:00Z,30.2791,-87.5561,0.0,26.14,2 
DISL,ioos:station:DISL:PPTA:1,2017-10-02T23:30:00Z,30.2791,-87.5561,0.0,26.03,2 
DISL,ioos:station:DISL:PPTA:1,2017-10-03T00:00:00Z,30.2791,-87.5561,0.0,25.99,2 
DISL,ioos:station:DISL:PPTA:1,2017-10-03T00:30:00Z,30.2791,-87.5561,0.0,25.95,2 
DISL,ioos:station:DISL:PPTA:1,2017-10-03T01:00:00Z,30.2791,-87.5561,0.0,25.88,2 
DISL,ioos:station:DISL:PPTA:1,2017-10-03T01:30:00Z,30.2791,-87.5561,0.0,25.8,2 
DISL,ioos:station:DISL:PPTA:1,2017-10-03T02:00:00Z,30.2791,-87.5561,0.0,25.76,2 
DISL,ioos:station:DISL:PPTA:1,2017-10-03T02:30:00Z,30.2791,-87.5561,0.0,25.73,2 
DISL,ioos:station:DISL:PPTA:1,2017-10-03T03:00:00Z,30.2791,-87.5561,0.0,25.66,2 
DISL,ioos:station:DISL:PPTA:1,2017-10-03T03:30:00Z,30.2791,-87.5561,0.0,25.55,2 
DISL,ioos:station:DISL:PPTA:1,2017-10-03T04:00:00Z,30.2791,-87.5561,0.0,25.48,2 
DISL,ioos:station:DISL:PPTA:1,2017-10-03T04:30:00Z,30.2791,-87.5561,0.0,25.42,2 
DISL,ioos:station:DISL:PPTA:1,2017-10-03T05:00:00Z,30.2791,-87.5561,0.0,25.56,2 
DISL,ioos:station:DISL:PPTA:1,2017-10-03T05:30:00Z,30.2791,-87.5561,0.0,25.44,2 
DISL,ioos:station:DISL:PPTA:1,2017-10-03T06:00:00Z,30.2791,-87.5561,0.0,25.43,2 
DISL,ioos:station:DISL:PPTA:1,2017-10-03T06:30:00Z,30.2791,-87.5561,0.0,25.42,2 
DISL,ioos:station:DISL:PPTA:1,2017-10-03T07:00:00Z,30.2791,-87.5561,0.0,25.46,2 
DISL,ioos:station:DISL:PPTA:1,2017-10-03T07:30:00Z,30.2791,-87.5561,0.0,25.26,2 
DISL,ioos:station:DISL:PPTA:1,2017-10-03T08:00:00Z,30.2791,-87.5561,0.0,25.13,2 
DISL,ioos:station:DISL:PPTA:1,2017-10-03T08:30:00Z,30.2791,-87.5561,0.0,25.1,2 
DISL,ioos:station:DISL:PPTA:1,2017-10-03T09:00:00Z,30.2791,-87.5561,0.0,25.11,2 
DISL,ioos:station:DISL:PPTA:1,2017-10-03T09:30:00Z,30.2791,-87.5561,0.0,25.03,2 
DISL,ioos:station:DISL:PPTA:1,2017-10-03T10:00:00Z,30.2791,-87.5561,0.0,25.98,2 
DISL,ioos:station:DISL:PPTA:1,2017-10-03T10:30:00Z,30.2791,-87.5561,0.0,25.91,2 
DISL,ioos:station:DISL:PPTA:1,2017-10-03T11:00:00Z,30.2791,-87.5561,0.0,25.98,2 
DISL,ioos:station:DISL:PPTA:1,2017-10-03T11:30:00Z,30.2791,-87.5561,0.0,25.96,2 
DISL,ioos:station:DISL:PPTA:1,2017-10-03T12:00:00Z,30.2791,-87.5561,0.0,25.84,2 
DISL,ioos:station:DISL:PPTA:1,2017-10-03T12:30:00Z,30.2791,-87.5561,0.0,25.95,2 
DISL,ioos:station:DISL:PPTA:1,2017-10-03T13:00:00Z,30.2791,-87.5561,0.0,25.99,2 
DISL,ioos:station:DISL:PPTA:1,2017-10-03T13:30:00Z,30.2791,-87.5561,0.0,25.9,2 
DISL,ioos:station:DISL:PPTA:1,2017-10-03T14:00:00Z,30.2791,-87.5561,0.0,25.98,2 
DISL,ioos:station:DISL:PPTA:1,2017-10-03T14:30:00Z,30.2791,-87.5561,0.0,25.98,2 
DISL,ioos:station:DISL:PPTA:1,2017-10-03T15:00:00Z,30.2791,-87.5561,0.0,25.86,2 
DISL,ioos:station:DISL:PPTA:1,2017-10-03T15:30:00Z,30.2791,-87.5561,0.0,25.93,2 
DISL,ioos:station:DISL:PPTA:1,2017-10-03T16:00:00Z,30.2791,-87.5561,0.0,25.96,2 
DISL,ioos:station:DISL:PPTA:1,2017-10-03T16:30:00Z,30.2791,-87.5561,0.0,25.78,2 
DISL,ioos:station:DISL:PPTA:1,2017-10-03T17:00:00Z,30.2791,-87.5561,0.0,25.62,2 
DISL,ioos:station:DISL:PPTA:1,2017-10-03T17:30:00Z,30.2791,-87.5561,0.0,25.67,2 
DISL,ioos:station:DISL:PPTA:1,2017-10-03T18:00:00Z,30.2791,-87.5561,0.0,25.94,2 
DISL,ioos:station:DISL:PPTA:1,2017-10-03T18:30:00Z,30.2791,-87.5561,0.0,26.0,2 
DISL,ioos:station:DISL:PPTA:1,2017-10-03T19:00:00Z,30.2791,-87.5561,0.0,25.95,2 
DISL,ioos:station:DISL:PPTA:1,2017-10-03T19:30:00Z,30.2791,-87.5561,0.0,26.13,2 
DISL,ioos:station:DISL:PPTA:1,2017-10-03T20:00:00Z,30.2791,-87.5561,0.0,26.11,2 
DISL,ioos:station:DISL:PPTA:1,2017-10-03T20:30:00Z,30.2791,-87.5561,0.0,26.13,2 
DISL,ioos:station:DISL:PPTA:1,2017-10-03T21:00:00Z,30.2791,-87.5561,0.0,26.13,2 
DISL,ioos:station:DISL:PPTA:1,2017-10-03T21:30:00Z,30.2791,-87.5561,0.0,26.14,2 
DISL,ioos:station:DISL:PPTA:1,2017-10-03T22:30:00Z,30.2791,-87.5561,0.0,26.22,2 
DISL,ioos:station:DISL:PPTA:1,2017-10-03T23:30:00Z,30.2791,-87.5561,0.0,26.16,2 
DISL,ioos:station:DISL:PPTA:1,2017-10-04T00:30:00Z,30.2791,-87.5561,0.0,25.94,2 
DISL,ioos:station:DISL:PPTA:1,2017-10-04T01:30:00Z,30.2791,-87.5561,0.0,25.86,2 
DISL,ioos:station:DISL:PPTA:1,2017-10-04T02:30:00Z,30.2791,-87.5561,0.0,25.92,2 
DISL,ioos:station:DISL:PPTA:1,2017-10-04T03:30:00Z,30.2791,-87.5561,0.0,25.46,2 
DISL,ioos:station:DISL:PPTA:1,2017-10-04T04:30:00Z,30.2791,-87.5561,0.0,25.81,2 
DISL,ioos:station:DISL:PPTA:1,2017-10-04T05:30:00Z,30.2791,-87.5561,0.0,25.31,2 
DISL,ioos:station:DISL:PPTA:1,2017-10-04T06:30:00Z,30.2791,-87.5561,0.0,25.15,2 
DISL,ioos:station:DISL:PPTA:1,2017-10-04T07:30:00Z,30.2791,-87.5561,0.0,24.97,2 
DISL,ioos:station:DISL:PPTA:1,2017-10-04T08:30:00Z,30.2791,-87.5561,0.0,25.06,2 
DISL,ioos:station:DISL:PPTA:1,2017-10-04T09:30:00Z,30.2791,-87.5561,0.0,24.87,2 
DISL,ioos:station:DISL:PPTA:1,2017-10-04T11:00:00Z,30.2791,-87.5561,0.0,25.52,2 
DISL,ioos:station:DISL:PPTA:1,2017-10-04T12:30:00Z,30.2791,-87.5561,0.0,25.96,2 
DISL,ioos:station:DISL:PPTA:1,2017-10-04T13:30:00Z,30.2791,-87.5561,0.0,26.08,2 
DISL,ioos:station:DISL:PPTA:1,2017-10-04T14:30:00Z,30.2791,-87.5561,0.0,26.13,2 
DISL,ioos:station:DISL:PPTA:1,2017-10-04T15:30:00Z,30.2791,-87.5561,0.0,26.15,2 
DISL,ioos:station:DISL:PPTA:1,2017-10-04T16:30:00Z,30.2791,-87.5561,0.0,26.17,2 
DISL,ioos:station:DISL:PPTA:1,2017-10-04T17:30:00Z,30.2791,-87.5561,0.0,26.28,2 
DISL,ioos:station:DISL:PPTA:1,2017-10-04T18:30:00Z,30.2791,-87.5561,0.0,25.78,2 
DISL,ioos:station:DISL:PPTA:1,2017-10-04T19:30:00Z,30.2791,-87.5561,0.0,25.98,2 
DISL,ioos:station:DISL:PPTA:1,2017-10-04T20:30:00Z,30.2791,-87.5561,0.0,26.18,2 
DISL,ioos:station:DISL:PPTA:1,2017-10-04T21:30:00Z,30.2791,-87.5561,0.0,26.32,2 
DISL,ioos:station:DISL:PPTA:1,2017-10-04T22:30:00Z,30.2791,-87.5561,0.0,26.34,2 
DISL,ioos:station:DISL:PPTA:1,2017-10-04T23:30:00Z,30.2791,-87.5561,0.0,26.23,2 
DISL,ioos:station:DISL:PPTA:1,2017-10-05T00:30:00Z,30.2791,-87.5561,0.0,26.26,2 
DISL,ioos:station:DISL:PPTA:1,2017-10-05T01:30:00Z,30.2791,-87.5561,0.0,26.34,2 
DISL,ioos:station:DISL:PPTA:1,2017-10-05T02:30:00Z,30.2791,-87.5561,0.0,26.38,2 
DISL,ioos:station:DISL:PPTA:1,2017-10-05T03:30:00Z,30.2791,-87.5561,0.0,26.53,2 
DISL,ioos:station:DISL:PPTA:1,2017-10-05T04:30:00Z,30.2791,-87.5561,0.0,26.58,2 
DISL,ioos:station:DISL:PPTA:1,2017-10-05T05:30:00Z,30.2791,-87.5561,0.0,26.58,2 
DISL,ioos:station:DISL:PPTA:1,2017-10-05T06:30:00Z,30.2791,-87.5561,0.0,26.07,2 
DISL,ioos:station:DISL:PPTA:1,2017-10-05T07:30:00Z,30.2791,-87.5561,0.0,24.98,2 
DISL,ioos:station:DISL:PPTA:1,2017-10-05T08:30:00Z,30.2791,-87.5561,0.0,25.01,2 
DISL,ioos:station:DISL:PPTA:1,2017-10-05T09:30:00Z,30.2791,-87.5561,0.0,24.95,2 
DISL,ioos:station:DISL:PPTA:1,2017-10-05T10:30:00Z,30.2791,-87.5561,0.0,24.81,2 
DISL,ioos:station:DISL:PPTA:1,2017-10-05T11:30:00Z,30.2791,-87.5561,0.0,26.05,2 
DISL,ioos:station:DISL:PPTA:1,2017-10-05T12:30:00Z,30.2791,-87.5561,0.0,26.34,2 
DISL,ioos:station:DISL:PPTA:1,2017-10-05T13:30:00Z,30.2791,-87.5561,0.0,26.12,2 
DISL,ioos:station:DISL:PPTA:1,2017-10-05T14:30:00Z,30.2791,-87.5561,0.0,26.14,2 
DISL,ioos:station:DISL:PPTA:1,2017-10-05T15:30:00Z,30.2791,-87.5561,0.0,26.21,2 
DISL,ioos:station:DISL:PPTA:1,2017-10-05T16:30:00Z,30.2791,-87.5561,0.0,26.27,2 
DISL,ioos:station:DISL:PPTA:1,2017-10-05T17:30:00Z,30.2791,-87.5561,0.0,26.3,2 
DISL,ioos:station:DISL:PPTA:1,2017-10-05T18:30:00Z,30.2791,-87.5561,0.0,26.36,2 
DISL,ioos:station:DISL:PPTA:1,2017-10-05T19:30:00Z,30.2791,-87.5561,0.0,26.46,2 
DISL,ioos:station:DISL:PPTA:1,2017-10-05T20:30:00Z,30.2791,-87.5561,0.0,26.67,2 
DISL,ioos:station:DISL:PPTA:1,2017-10-05T21:30:00Z,30.2791,-87.5561,0.0,26.69,2 
DISL,ioos:station:DISL:PPTA:1,2017-10-05T22:30:00Z,30.2791,-87.5561,0.0,26.81,2 
DISL,ioos:station:DISL:PPTA:1,2017-10-05T23:30:00Z,30.2791,-87.5561,0.0,26.7,2 
DISL,ioos:station:DISL:PPTA:1,2017-10-06T00:30:00Z,30.2791,-87.5561,0.0,26.61,2 
DISL,ioos:station:DISL:PPTA:1,2017-10-06T01:30:00Z,30.2791,-87.5561,0.0,26.6,2 
DISL,ioos:station:DISL:PPTA:1,2017-10-06T02:30:00Z,30.2791,-87.5561,0.0,26.41,2 
DISL,ioos:station:DISL:PPTA:1,2017-10-06T03:30:00Z,30.2791,-87.5561,0.0,25.86,2 
DISL,ioos:station:DISL:PPTA:1,2017-10-06T04:30:00Z,30.2791,-87.5561,0.0,25.53,2 
DISL,ioos:station:DISL:PPTA:1,2017-10-06T05:30:00Z,30.2791,-87.5561,0.0,25.65,2 
DISL,ioos:station:DISL:PPTA:1,2017-10-06T06:30:00Z,30.2791,-87.5561,0.0,25.39,2 
DISL,ioos:station:DISL:PPTA:1,2017-10-06T07:30:00Z,30.2791,-87.5561,0.0,25.33,2 
DISL,ioos:station:DISL:PPTA:1,2017-10-06T08:30:00Z,30.2791,-87.5561,0.0,25.46,2 
DISL,ioos:station:DISL:PPTA:1,2017-10-06T09:30:00Z,30.2791,-87.5561,0.0,25.52,2 
DISL,ioos:station:DISL:PPTA:1,2017-10-06T10:30:00Z,30.2791,-87.5561,0.0,25.46,2 
DISL,ioos:station:DISL:PPTA:1,2017-10-06T11:30:00Z,30.2791,-87.5561,0.0,25.13,2 
DISL,ioos:station:DISL:PPTA:1,2017-10-06T12:30:00Z,30.2791,-87.5561,0.0,25.18,2 
DISL,ioos:station:DISL:PPTA:1,2017-10-06T13:30:00Z,30.2791,-87.5561,0.0,25.65,2 
DISL,ioos:station:DISL:PPTA:1,2017-10-06T14:30:00Z,30.2791,-87.5561,0.0,25.96,2 
DISL,ioos:station:DISL:PPTA:1,2017-10-06T15:30:00Z,30.2791,-87.5561,0.0,26.31,2 
DISL,ioos:station:DISL:PPTA:1,2017-10-06T16:30:00Z,30.2791,-87.5561,0.0,26.4,2 
DISL,ioos:station:DISL:PPTA:1,2017-10-06T17:30:00Z,30.2791,-87.5561,0.0,26.4,2 
DISL,ioos:station:DISL:PPTA:1,2017-10-06T18:30:00Z,30.2791,-87.5561,0.0,26.48,2 
DISL,ioos:station:DISL:PPTA:1,2017-10-06T19:30:00Z,30.2791,-87.5561,0.0,26.53,2 
DISL,ioos:station:DISL:PPTA:1,2017-10-06T20:30:00Z,30.2791,-87.5561,0.0,26.63,2 
DISL,ioos:station:DISL:PPTA:1,2017-10-06T21:30:00Z,30.2791,-87.5561,0.0,26.67,2 
DISL,ioos:station:DISL:PPTA:1,2017-10-06T22:30:00Z,30.2791,-87.5561,0.0,26.69,2 
DISL,ioos:station:DISL:PPTA:1,2017-10-06T23:30:00Z,30.2791,-87.5561,0.0,26.7,2 
DISL,ioos:station:DISL:PPTA:1,2017-10-07T00:30:00Z,30.2791,-87.5561,0.0,26.68,2 
DISL,ioos:station:DISL:PPTA:1,2017-10-07T01:30:00Z,30.2791,-87.5561,0.0,26.64,2 
DISL,ioos:station:DISL:PPTA:1,2017-10-07T02:30:00Z,30.2791,-87.5561,0.0,26.63,2 
DISL,ioos:station:DISL:PPTA:1,2017-10-07T03:30:00Z,30.2791,-87.5561,0.0,26.56,2 
DISL,ioos:station:DISL:PPTA:1,2017-10-07T04:30:00Z,30.2791,-87.5561,0.0,26.59,2 
DISL,ioos:station:DISL:PPTA:1,2017-10-07T05:30:00Z,30.2791,-87.5561,0.0,26.56,2 
DISL,ioos:station:DISL:PPTA:1,2017-10-07T06:30:00Z,30.2791,-87.5561,0.0,26.57,2 
DISL,ioos:station:DISL:PPTA:1,2017-10-07T07:30:00Z,30.2791,-87.5561,0.0,26.62,2 
DISL,ioos:station:DISL:PPTA:1,2017-10-07T08:30:00Z,30.2791,-87.5561,0.0,26.47,2 
DISL,ioos:station:DISL:PPTA:1,2017-10-07T09:30:00Z,30.2791,-87.5561,0.0,26.4,2 
DISL,ioos:station:DISL:PPTA:1,2017-10-07T10:30:00Z,30.2791,-87.5561,0.0,26.2,2 
DISL,ioos:station:DISL:PPTA:1,2017-10-07T11:30:00Z,30.2791,-87.5561,0.0,26.13,2 
DISL,ioos:station:DISL:PPTA:1,2017-10-07T12:30:00Z,30.2791,-87.5561,0.0,26.09,2 
DISL,ioos:station:DISL:PPTA:1,2017-10-07T13:30:00Z,30.2791,-87.5561,0.0,26.11,2 
DISL,ioos:station:DISL:PPTA:1,2017-10-07T14:30:00Z,30.2791,-87.5561,0.0,26.11,2 
DISL,ioos:station:DISL:PPTA:1,2017-10-07T15:30:00Z,30.2791,-87.5561,0.0,26.18,2 
DISL,ioos:station:DISL:PPTA:1,2017-10-07T16:30:00Z,30.2791,-87.5561,0.0,26.36,2 
DISL,ioos:station:DISL:PPTA:1,2017-10-07T17:30:00Z,30.2791,-87.5561,0.0,26.46,2 
DISL,ioos:station:DISL:PPTA:1,2017-10-07T18:30:00Z,30.2791,-87.5561,0.0,26.53,2 
DISL,ioos:station:DISL:PPTA:1,2017-10-07T19:30:00Z,30.2791,-87.5561,0.0,26.62,2 
DISL,ioos:station:DISL:PPTA:1,2017-10-07T20:30:00Z,30.2791,-87.5561,0.0,26.65,2 
DISL,ioos:station:DISL:PPTA:1,2017-10-07T21:30:00Z,30.2791,-87.5561,0.0,26.68,2 
DISL,ioos:station:DISL:PPTA:1,2017-10-07T22:30:00Z,30.2791,-87.5561,0.0,26.71,2 
DISL,ioos:station:DISL:PPTA:1,2017-10-07T23:30:00Z,30.2791,-87.5561,0.0,26.7,2 
DISL,ioos:station:DISL:PPTA:1,2017-10-08T00:30:00Z,30.2791,-87.5561,0.0,26.69,2 
DISL,ioos:station:DISL:PPTA:1,2017-10-08T01:30:00Z,30.2791,-87.5561,0.0,26.68,2 
DISL,ioos:station:DISL:PPTA:1,2017-10-08T02:30:00Z,30.2791,-87.5561,0.0,26.69,2 
DISL,ioos:station:DISL:PPTA:1,2017-10-08T03:30:00Z,30.2791,-87.5561,0.0,26.64,2 
DISL,ioos:station:DISL:PPTA:1,2017-10-08T04:30:00Z,30.2791,-87.5561,0.0,26.62,2 
DISL,ioos:station:DISL:PPTA:1,2017-10-08T05:30:00Z,30.2791,-87.5561,0.0,26.65,2 
DISL,ioos:station:DISL:PPTA:1,2017-10-08T06:30:00Z,30.2791,-87.5561,0.0,26.64,2 
DISL,ioos:station:DISL:PPTA:1,2017-10-08T07:30:00Z,30.2791,-87.5561,0.0,26.57,2 
DISL,ioos:station:DISL:PPTA:1,2017-10-08T08:30:00Z,30.2791,-87.5561,0.0,26.58,2 
DISL,ioos:station:DISL:PPTA:1,2017-10-08T09:30:00Z,30.2791,-87.5561,0.0,26.36,2 
DISL,ioos:station:DISL:PPTA:1,2017-10-08T10:30:00Z,30.2791,-87.5561,0.0,26.33,2 
DISL,ioos:station:DISL:PPTA:1,2017-10-08T11:30:00Z,30.2791,-87.5561,0.0,26.32,2 
DISL,ioos:station:DISL:PPTA:1,2017-10-08T12:30:00Z,30.2791,-87.5561,0.0,26.34,2 
DISL,ioos:station:DISL:PPTA:1,2017-10-08T13:30:00Z,30.2791,-87.5561,0.0,26.29,2 
DISL,ioos:station:DISL:PPTA:1,2017-10-08T14:30:00Z,30.2791,-87.5561,0.0,26.24,2 
DISL,ioos:station:DISL:PPTA:1,2017-10-08T15:30:00Z,30.2791,-87.5561,0.0,26.31,2 
DISL,ioos:station:DISL:PPTA:1,2017-10-08T16:30:00Z,30.2791,-87.5561,0.0,26.37,2 
DISL,ioos:station:DISL:PPTA:1,2017-10-08T17:30:00Z,30.2791,-87.5561,0.0,26.54,2 
DISL,ioos:station:DISL:PPTA:1,2017-10-08T18:30:00Z,30.2791,-87.5561,0.0,26.61,2 
DISL,ioos:station:DISL:PPTA:1,2017-10-08T19:30:00Z,30.2791,-87.5561,0.0,26.66,2 
DISL,ioos:station:DISL:PPTA:1,2017-10-08T20:30:00Z,30.2791,-87.5561,0.0,26.82,2 
DISL,ioos:station:DISL:PPTA:1,2017-10-08T21:30:00Z,30.2791,-87.5561,0.0,26.74,2 
DISL,ioos:station:DISL:PPTA:1,2017-10-08T22:30:00Z,30.2791,-87.5561,0.0,26.75,2 
DISL,ioos:station:DISL:PPTA:1,2017-10-08T23:30:00Z,30.2791,-87.5561,0.0,26.7,2 
DISL,ioos:station:DISL:PPTA:1,2017-10-09T00:30:00Z,30.2791,-87.5561,0.0,26.84,2 
DISL,ioos:station:DISL:PPTA:1,2017-10-09T01:30:00Z,30.2791,-87.5561,0.0,26.72,2 
DISL,ioos:station:DISL:PPTA:1,2017-10-09T02:30:00Z,30.2791,-87.5561,0.0,26.72,2 
DISL,ioos:station:DISL:PPTA:1,2017-10-09T03:30:00Z,30.2791,-87.5561,0.0,26.72,2 
DISL,ioos:station:DISL:PPTA:1,2017-10-09T04:30:00Z,30.2791,-87.5561,0.0,26.72,2 
DISL,ioos:station:DISL:PPTA:1,2017-10-09T05:30:00Z,30.2791,-87.5561,0.0,26.72,2 
DISL,ioos:station:DISL:PPTA:1,2017-10-09T06:30:00Z,30.2791,-87.5561,0.0,26.71,2 
DISL,ioos:station:DISL:PPTA:1,2017-10-09T07:30:00Z,30.2791,-87.5561,0.0,26.72,2 
DISL,ioos:station:DISL:PPTA:1,2017-10-09T08:00:00Z,30.2791,-87.5561,0.0,26.71,2 
DISL,ioos:station:DISL:PPTA:1,2017-10-09T09:30:00Z,30.2791,-87.5561,0.0,26.72,2 
DISL,ioos:station:DISL:PPTA:1,2017-10-09T10:30:00Z,30.2791,-87.5561,0.0,26.68,2 
DISL,ioos:station:DISL:PPTA:1,2017-10-09T11:30:00Z,30.2791,-87.5561,0.0,26.53,2 
DISL,ioos:station:DISL:PPTA:1,2017-10-09T12:30:00Z,30.2791,-87.5561,0.0,26.43,2 
DISL,ioos:station:DISL:PPTA:1,2017-10-09T13:30:00Z,30.2791,-87.5561,0.0,26.49,2 
DISL,ioos:station:DISL:PPTA:1,2017-10-09T14:30:00Z,30.2791,-87.5561,0.0,26.57,2 
DISL,ioos:station:DISL:PPTA:1,2017-10-09T15:30:00Z,30.2791,-87.5561,0.0,26.8,2 
DISL,ioos:station:DISL:PPTA:1,2017-10-09T16:30:00Z,30.2791,-87.5561,0.0,27.0,2 
DISL,ioos:station:DISL:PPTA:1,2017-10-09T17:00:00Z,30.2791,-87.5561,0.0,27.08,2 
DISL,ioos:station:DISL:PPTA:1,2017-10-09T18:30:00Z,30.2791,-87.5561,0.0,27.35,2 
DISL,ioos:station:DISL:PPTA:1,2017-10-09T19:30:00Z,30.2791,-87.5561,0.0,27.39,2 
DISL,ioos:station:DISL:PPTA:1,2017-10-09T20:30:00Z,30.2791,-87.5561,0.0,27.39,2 
DISL,ioos:station:DISL:PPTA:1,2017-10-09T21:30:00Z,30.2791,-87.5561,0.0,27.35,2 
DISL,ioos:station:DISL:PPTA:1,2017-10-09T22:30:00Z,30.2791,-87.5561,0.0,27.36,2 
DISL,ioos:station:DISL:PPTA:1,2017-10-09T23:30:00Z,30.2791,-87.5561,0.0,27.54,2 
DISL,ioos:station:DISL:PPTA:1,2017-10-10T00:30:00Z,30.2791,-87.5561,0.0,27.32,2 
DISL,ioos:station:DISL:PPTA:1,2017-10-10T01:30:00Z,30.2791,-87.5561,0.0,26.94,2 
DISL,ioos:station:DISL:PPTA:1,2017-10-10T02:30:00Z,30.2791,-87.5561,0.0,26.95,2 
DISL,ioos:station:DISL:PPTA:1,2017-10-10T03:30:00Z,30.2791,-87.5561,0.0,27.24,2 
DISL,ioos:station:DISL:PPTA:1,2017-10-10T04:30:00Z,30.2791,-87.5561,0.0,27.27,2 
DISL,ioos:station:DISL:PPTA:1,2017-10-10T05:30:00Z,30.2791,-87.5561,0.0,27.22,2 
DISL,ioos:station:DISL:PPTA:1,2017-10-10T06:30:00Z,30.2791,-87.5561,0.0,27.03,2 
DISL,ioos:station:DISL:PPTA:1,2017-10-10T07:30:00Z,30.2791,-87.5561,0.0,27.06,2 
DISL,ioos:station:DISL:PPTA:1,2017-10-10T08:30:00Z,30.2791,-87.5561,0.0,27.17,2 
DISL,ioos:station:DISL:PPTA:1,2017-10-10T09:30:00Z,30.2791,-87.5561,0.0,27.0,2 